• In France
  • List of Countries
  • For 7 days
  • Water Temperature
  • Satellite Maps
  • Weather Map
  • Weather Widgets
  • user-avatar
    Login

    Hourly Weather Knighton

    Today, 21 July, Saturday

    Time Temperature Precipitation Wind Pressure Humidity
    00:00 +13°C° 0.1 mm 0 mps 730 mmHg 95%
    01:00 +12°C° 0 mm 0 mps 730 mmHg 95%
    02:00 +12°C° 0 mm 0 mps 730 mmHg 95%
    03:00 +12°C° 0 mm 0 mps 730 mmHg 95%
    04:00 +13°C° 0 mm 0 mps 730 mmHg 94%
    05:00 +13°C° 0 mm 0 mps 731 mmHg 93%
    06:00 +13°C° 0 mm 0 mps 731 mmHg 93%
    07:00 +14°C° 0 mm 0 mps 731 mmHg 90%
    08:00 +15°C° 0 mm 0 mps 731 mmHg 87%
    09:00 +18°C° 0 mm 1 mps 732 mmHg 84%
    10:00 +19°C° 0.1 mm 1 mps 732 mmHg 80%
    11:00 +20°C° 0.1 mm 1 mps 732 mmHg 76%
    12:00 +22°C° 0.1 mm 1 mps 732 mmHg 72%
    13:00 +21°C° 0.2 mm 2 mps 732 mmHg 72%
    14:00 +21°C° 0.2 mm 2 mps 732 mmHg 71%
    15:00 +21°C° 0.2 mm 2 mps 732 mmHg 71%
    16:00 +21°C° 0.1 mm 3 mps 732 mmHg 73%
    17:00 +20°C° 0.1 mm 3 mps 732 mmHg 76%
    18:00 +20°C° 0.1 mm 3 mps 732 mmHg 78%
    19:00 +18°C° 0 mm 3 mps 732 mmHg 83%
    20:00 +16°C° 0 mm 2 mps 732 mmHg 88%
    21:00 +15°C° 0 mm 2 mps 733 mmHg 92%
    22:00 +14°C° 0 mm 2 mps 733 mmHg 93%
    23:00 +13°C° 0 mm 2 mps 733 mmHg 93%

    Tomorrow, 22 July, Sunday

    Time Temperature Precipitation Wind Pressure Humidity
    00:00 +13°C° 0 mm 1 mps 733 mmHg 94%
    01:00 +12°C° 0 mm 1 mps 733 mmHg 93%
    02:00 +12°C° 0 mm 1 mps 733 mmHg 93%
    03:00 +12°C° 0 mm 1 mps 733 mmHg 93%
    04:00 +13°C° 0 mm 1 mps 733 mmHg 91%
    05:00 +13°C° 0 mm 1 mps 733 mmHg 89%
    06:00 +14°C° 0 mm 1 mps 733 mmHg 88%
    07:00 +16°C° 0 mm 1 mps 733 mmHg 82%
    08:00 +19°C° 0 mm 1 mps 733 mmHg 76%
    09:00 +20°C° 0 mm 2 mps 734 mmHg 70%
    10:00 +21°C° 0 mm 2 mps 734 mmHg 69%
    11:00 +23°C° 0 mm 2 mps 734 mmHg 68%
    12:00 +24°C° 0 mm 2 mps 734 mmHg 67%
    13:00 +24°C° 0.1 mm 2 mps 734 mmHg 67%
    14:00 +24°C° 0.1 mm 2 mps 734 mmHg 67%
    15:00 +25°C° 0.1 mm 2 mps 733 mmHg 67%
    16:00 +24°C° 0.1 mm 2 mps 733 mmHg 70%
    17:00 +24°C° 0.1 mm 2 mps 733 mmHg 73%
    18:00 +24°C° 0.1 mm 2 mps 733 mmHg 76%
    19:00 +21°C° 0.1 mm 2 mps 733 mmHg 81%
    20:00 +19°C° 0.1 mm 2 mps 733 mmHg 86%
    21:00 +18°C° 0.1 mm 1 mps 733 mmHg 91%
    22:00 +18°C° 0 mm 1 mps 733 mmHg 92%
    23:00 +16°C° 0 mm 1 mps 733 mmHg 92%

    Day after tomorrow, 23 July, Monday

    Time Temperature Precipitation Wind Pressure Humidity
    00:00 +16°C° 0 mm 1 mps 733 mmHg 93%
    01:00 +16°C° 0 mm 1 mps 733 mmHg 93%
    02:00 +15°C° 0 mm 1 mps 733 mmHg 93%
    03:00 +15°C° 0 mm 1 mps 733 mmHg 93%
    04:00 +16°C° 0 mm 1 mps 733 mmHg 92%
    05:00 +16°C° 0 mm 1 mps 733 mmHg 91%
    06:00 +18°C° 0 mm 1 mps 733 mmHg 90%
    07:00 +19°C° 0 mm 1 mps 733 mmHg 85%
    08:00 +19°C° 0 mm 2 mps 733 mmHg 79%
    09:00 +21°C° 0 mm 2 mps 733 mmHg 74%
    10:00 +23°C° 0 mm 2 mps 733 mmHg 70%
    11:00 +24°C° 0 mm 3 mps 733 mmHg 66%
    12:00 +25°C° 0 mm 3 mps 733 mmHg 61%
    13:00 +25°C° 0 mm 3 mps 733 mmHg 61%
    14:00 +25°C° 0 mm 4 mps 733 mmHg 62%
    15:00 +25°C° 0 mm 4 mps 732 mmHg 62%
    16:00 +23°C° 0 mm 4 mps 732 mmHg 65%
    17:00 +23°C° 0 mm 4 mps 732 mmHg 68%
    18:00 +22°C° 0 mm 3 mps 732 mmHg 71%
    19:00 +20°C° 0 mm 3 mps 732 mmHg 78%
    20:00 +18°C° 0 mm 3 mps 732 mmHg 85%
    21:00 +16°C° 0 mm 2 mps 732 mmHg 92%
    22:00 +16°C° 0 mm 2 mps 731 mmHg 93%
    23:00 +15°C° 0 mm 2 mps 731 mmHg 94%

    24 July, Tuesday

    Time Temperature Precipitation Wind Pressure Humidity
    00:00 +14°C° 0 mm 2 mps 731 mmHg 95%
    01:00 +14°C° 0 mm 2 mps 731 mmHg 95%
    02:00 +14°C° 0 mm 2 mps 731 mmHg 95%
    03:00 +14°C° 0 mm 2 mps 731 mmHg 95%
    04:00 +14°C° 0 mm 2 mps 731 mmHg 94%
    05:00 +15°C° 0 mm 2 mps 731 mmHg 93%
    06:00 +15°C° 0 mm 2 mps 731 mmHg 92%
    07:00 +17°C° 0 mm 2 mps 731 mmHg 86%
    08:00 +18°C° 0 mm 2 mps 731 mmHg 81%
    09:00 +20°C° 0 mm 3 mps 731 mmHg 75%
    10:00 +21°C° 0.1 mm 3 mps 731 mmHg 71%
    11:00 +22°C° 0.1 mm 3 mps 731 mmHg 67%
    12:00 +22°C° 0.1 mm 3 mps 731 mmHg 64%
    13:00 +24°C° 0.2 mm 3 mps 731 mmHg 63%
    14:00 +24°C° 0.2 mm 3 mps 731 mmHg 63%
    15:00 +24°C° 0.2 mm 3 mps 731 mmHg 63%
    16:00 +22°C° 0.2 mm 3 mps 731 mmHg 66%
    17:00 +21°C° 0.2 mm 3 mps 731 mmHg 70%
    18:00 +21°C° 0.2 mm 3 mps 731 mmHg 74%
    19:00 +19°C° 0 mm 2 mps 731 mmHg 79%
    20:00 +17°C° 0 mm 2 mps 731 mmHg 85%
    21:00 +15°C° 0 mm 1 mps 731 mmHg 90%
    22:00 +15°C° 0 mm 1 mps 731 mmHg 91%
    23:00 +14°C° 0 mm 1 mps 731 mmHg 91%

    25 July, Wednesday

    Time Temperature Precipitation Wind Pressure Humidity
    00:00 +14°C° 0 mm 1 mps 731 mmHg 92%
    01:00 +13°C° 0 mm 1 mps 731 mmHg 92%
    02:00 +13°C° 0 mm 1 mps 730 mmHg 93%
    03:00 +13°C° 0 mm 1 mps 730 mmHg 93%
    04:00 +14°C° 0 mm 1 mps 731 mmHg 92%
    05:00 +14°C° 0 mm 1 mps 731 mmHg 91%
    06:00 +14°C° 0 mm 1 mps 731 mmHg 90%
    07:00 +16°C° 0 mm 2 mps 731 mmHg 85%
    08:00 +17°C° 0 mm 2 mps 732 mmHg 79%
    09:00 +18°C° 0 mm 2 mps 732 mmHg 73%
    10:00 +19°C° 0 mm 3 mps 732 mmHg 69%
    11:00 +19°C° 0 mm 3 mps 732 mmHg 65%
    12:00 +20°C° 0 mm 4 mps 732 mmHg 62%
    13:00 +20°C° 0 mm 4 mps 732 mmHg 60%
    14:00 +21°C° 0 mm 4 mps 732 mmHg 58%
    15:00 +21°C° 0 mm 4 mps 732 mmHg 56%
    16:00 +21°C° 0 mm 4 mps 733 mmHg 58%
    17:00 +20°C° 0 mm 4 mps 733 mmHg 61%
    18:00 +19°C° 0 mm 4 mps 733 mmHg 64%
    19:00 +17°C° 0 mm 3 mps 733 mmHg 71%
    20:00 +14°C° 0 mm 3 mps 733 mmHg 78%
    21:00 +13°C° 0 mm 2 mps 733 mmHg 85%
    22:00 +12°C° 0 mm 2 mps 733 mmHg 87%
    23:00 +12°C° 0 mm 2 mps 734 mmHg 88%

    26 July, Thursday

    Time Temperature Precipitation Wind Pressure Humidity
    00:00 +11°C° 0 mm 1 mps 734 mmHg 90%
    01:00 +11°C° 0 mm 1 mps 734 mmHg 91%
    02:00 +11°C° 0 mm 1 mps 734 mmHg 92%
    03:00 +11°C° 0 mm 1 mps 734 mmHg 93%
    04:00 +12°C° 0 mm 1 mps 734 mmHg 92%
    05:00 +12°C° 0 mm 1 mps 734 mmHg 91%
    06:00 +13°C° 0 mm 1 mps 734 mmHg 90%
    07:00 +15°C° 0 mm 1 mps 734 mmHg 82%
    08:00 +18°C° 0 mm 1 mps 734 mmHg 73%
    09:00 +19°C° 0 mm 2 mps 734 mmHg 65%
    10:00 +20°C° 0 mm 2 mps 734 mmHg 61%
    11:00 +21°C° 0 mm 2 mps 734 mmHg 57%
    12:00 +22°C° 0 mm 3 mps 734 mmHg 52%
    13:00 +24°C° 0 mm 3 mps 733 mmHg 50%
    14:00 +24°C° 0 mm 3 mps 733 mmHg 47%
    15:00 +25°C° 0 mm 3 mps 733 mmHg 45%
    16:00 +25°C° 0 mm 3 mps 732 mmHg 48%
    17:00 +24°C° 0 mm 3 mps 732 mmHg 52%
    18:00 +24°C° 0 mm 3 mps 731 mmHg 55%
    19:00 +21°C° 0 mm 3 mps 731 mmHg 60%
    20:00 +19°C° 0 mm 3 mps 731 mmHg 64%
    21:00 +16°C° 0 mm 3 mps 731 mmHg 69%
    22:00 +14°C° 0 mm 3 mps 731 mmHg 73%
    23:00 +14°C° 0 mm 3 mps 730 mmHg 76%
    Show more